Torna al catalogo

USA 472

AttivoMilitareVLEO
NORAD 62541·PAYLOAD·🇺🇸 United States

Lanciato Jan 10, 2025 da Vandenberg Space Force Base

Loading…

Prossimi Passaggi (prossime 24 ore)

TLE

ObsoletoSource: Mike McCants

Epoca: Aug 26, 2026, 01:25 UTC

1 62541U 25005K   26238.05958113 0.00000000  00000-0  00000-0 0    06
2 62541  70.0210 226.4362 0002500  50.2911 309.7089 14.96713408    09

Traccia USA 472 in tempo reale con AllMySat

Download on the App Store